User: anonymous   Login
Location: *
(17.3280°S, 114.7300°W)
Time: 09:23:31
(UTC+00:00)
Language:

Meteor 2-10 Rocket - Orbit

View from above orbital plane
View from above orbital plane
View from above satellite
View from above satellite

Ground track
Ground track

The orbit data is extracted from the following two-line orbital elements,

1 14453U 83109B   20293.48453601 +.00000030 +00000-0 +64598-5 0  9995
2 14453 081.1650 318.6246 0105774 132.7691 228.2447 14.24734864921287
Epoch (UTC): 19 October 2020 11:37:43
Eccentricity: 0.0105774
inclination: 81.1650°
perigee height: 733 km
apogee height: 885 km
right ascension of ascending node: 318.6246°
argument of perigee: 132.7691°
revolutions per day: 14.24734864
mean anomaly at epoch: 228.2447°
orbit number at epoch: 92128

The dashed part of the orbit path shows where the satellite is in the earth's shadow,  

DLR